[[{"header":{"parameterUnit":"m.s-1","parameterCategory":1,"la1":30.2991,"la2":30.254,"lo1":-89.0895,"lo2":-89.0444,"dy":0.0017,"dx":0.0017,"nx":28,"ny":28,"refTime":"2024-08-02T09:00:00:Z","depth":0,"parameterNumber":2,"parameterNumberName":"U-component_of_WINDS"},"data":[0,0,0,0,0,0,0,0,0,0,0,0,0,0,0,0,0,0,0,0,0,0,0,0,0,0,0,0,0,0,0,0,0,0,0,0,0,0,0,0,0,0,0,0,0,0,0,0,0,0,0,0,0,0,0,0,0,0,2.2498,2.2499,0,2.2641,2.2643,2.2644,2.2645,2.2643,2.2641,2.2639,2.2793,2.2799,2.2805,0,0,0,0,0,0,0,0,0,0,0,0,0,2.2232,2.2237,2.2498,2.25,2.2501,2.2641,2.2643,2.2645,2.2645,2.2643,2.2641,2.2639,2.2792,2.2798,2.2805,0,0,0,0,0,0,0,0,0,0,0,0,0,2.2359,2.2239,2.2497,2.2518,2.2522,2.264,2.2643,2.2645,2.2646,2.2643,2.264,2.2638,2.2789,2.2798,2.2806,2.2916,0,0,2.2833,2.2837,0,0,0,0,0,0,0,0,2.2352,2.2369,2.2513,2.2517,2.2521,2.2622,2.2606,2.2736,2.2646,2.2599,2.2639,2.2636,2.2739,2.2752,2.2785,2.2923,2.293,2.2834,2.2839,2.2843,2.2845,0,0,0,0,0,0,0,2.2343,2.2363,2.2555,2.2516,2.252,2.2523,2.2538,2.263,2.2683,2.2603,2.2603,2.262,2.2741,2.2777,2.2789,2.2932,2.2834,2.2841,2.2847,2.285,2.317,2.3173,0,0,0,0,0,0,2.2329,2.2355,2.255,2.2559,2.2427,2.253,2.2547,2.2593,2.2682,2.2693,2.2622,2.2619,2.2763,2.2779,2.2794,2.293,2.2843,2.2851,2.2856,2.3167,2.317,2.3174,0,0,0,0,0,0,2.2323,2.2346,2.2544,2.2457,2.2483,2.2537,2.2589,2.2597,2.2633,2.2696,2.2707,2.2648,2.2761,2.2782,2.2886,2.2935,2.2855,2.2863,2.3163,2.3168,2.3172,2.3201,0,0,0,0,0,0,2.2316,2.2344,2.2385,2.2458,2.2487,2.2631,2.2592,2.2602,2.2647,2.2645,2.2724,2.2735,2.2761,2.2873,2.2894,2.2946,2.287,2.3159,2.3165,2.3171,2.3196,2.3206,2.3215,0,0,0,0,0,2.2306,2.2388,2.2387,2.241,2.2539,2.2634,2.2651,2.2677,2.2651,2.2693,2.2734,2.2732,2.2926,2.2883,2.2908,2.2962,2.3156,2.3163,2.317,2.3191,2.3204,2.3214,0,0,0,0,0,0,2.2322,2.2398,2.2397,2.2505,2.2563,2.2634,2.2688,2.269,2.2758,2.2753,2.2786,2.2804,2.2907,2.2945,2.2897,2.3074,2.3038,2.305,2.3045,2.3058,2.3067,2.3057,2.2877,0,0,0,0,0,2.2337,2.2406,2.247,2.2559,2.2588,2.2633,2.2676,2.2691,2.2753,2.2778,2.2827,2.2889,2.2964,2.3013,2.3086,2.3201,2.3219,2.3251,2.326,2.3268,2.3279,2.3344,2.3359,2.3198,2.3198,2.3198,0,0,2.2371,2.2421,2.2463,2.2564,2.261,2.2683,2.2654,2.2732,2.2787,2.2791,2.2891,2.2929,2.3001,2.3111,2.3163,2.3146,2.3327,2.3277,2.3282,2.329,2.3353,2.3368,2.3382,2.3203,2.3202,2.3201,0,0,2.247,2.2514,2.2594,2.264,2.271,2.274,2.2759,2.283,2.2854,2.2955,2.296,2.3027,2.3155,2.3206,2.3249,2.3368,2.3369,2.3391,2.3441,2.3505,2.3517,2.3529,2.3572,2.3588,2.3401,2.3401,2.3402,0,2.2504,2.2611,2.2635,2.2713,2.2758,2.2762,2.2845,2.289,2.2981,2.3013,2.2993,2.3154,2.3203,2.3325,2.3354,2.3388,2.3413,2.3382,2.3513,2.3525,2.3536,2.3578,2.3594,2.3404,2.3403,2.3403,2.3403,0,2.265,2.2725,2.2781,2.2866,2.2918,2.2998,2.3036,2.3086,2.3097,2.3129,2.3233,2.3291,2.3376,2.3406,2.3418,2.3531,2.3519,2.3506,2.347,2.3553,2.3593,2.3609,2.3407,2.3406,2.3405,2.3405,0,0,2.2763,2.286,2.2881,2.292,2.2997,2.3057,2.3138,2.3219,2.3261,2.3324,2.3395,2.3503,2.3491,2.3539,2.3558,2.3613,2.3705,2.3593,2.3595,2.3613,2.3835,2.3845,2.3863,2.3705,2.3709,2.3711,2.3829,0,2.2871,2.3013,2.3037,2.3162,2.3232,2.3237,2.3308,2.3365,2.3398,2.3464,2.3501,2.3578,2.3555,2.3585,2.364,2.3682,2.375,2.3674,2.3774,2.3777,2.3756,2.3884,2.3895,2.4004,2.3845,2.3848,2.385,0,2.3016,2.308,2.3212,2.328,2.3311,2.3374,2.345,2.3513,2.3578,2.3598,2.3652,2.3664,2.3751,2.371,2.3832,2.3779,2.3822,2.3849,2.3854,2.3865,2.3819,2.39,2.4039,2.4055,2.3874,2.3872,2.3871,0,2.3087,2.3206,2.3301,2.3334,2.3416,2.3461,2.3497,2.356,2.3607,2.3674,2.3706,2.3783,2.3826,2.3887,2.3921,2.3888,2.4041,2.4002,2.4062,2.4061,2.4094,2.4092,2.4243,2.412,2.4119,2.4119,2.4119,0,2.3205,2.3286,2.3334,2.3392,2.3483,2.3511,2.3601,2.3637,2.3693,2.376,2.377,2.3833,2.3873,2.3943,2.3969,2.4067,2.4086,2.4106,2.4113,2.4106,2.4104,2.4135,2.4129,2.4124,2.4123,2.4122,2.4121,0,2.33,2.3335,2.3438,2.3507,2.3526,2.3591,2.3651,2.3709,2.3741,2.3826,2.3848,2.3899,2.3982,2.4021,2.4124,2.4142,2.4253,2.4254,2.423,2.4233,2.429,2.4284,2.4467,2.4493,2.4352,2.4353,2.4354,0,2.3374,2.3435,2.3511,2.3555,2.3592,2.3664,2.3712,2.3742,2.3792,2.3871,2.392,2.4003,2.407,2.4203,2.4251,2.433,2.4334,2.4392,2.4346,2.4337,2.4336,2.4332,2.4339,2.4401,2.4403,2.4404,2.4405,0,2.3501,2.3515,2.3582,2.3656,2.3713,2.3773,2.3832,2.3869,2.3909,2.3965,2.4048,2.41,2.4205,2.4287,2.437,2.441,2.4415,2.4418,2.4437,2.4431,2.4415,2.4426,2.4254,2.4415,2.4414,2.4413,2.4412,2.4412,2.3589,2.3644,2.3706,2.3781,2.3828,2.3883,2.3941,2.398,2.4049,2.4135,2.4149,2.4238,2.4304,2.4414,2.4458,2.453,2.4516,2.4542,2.4549,2.4555,2.4559,2.4402,2.4545,2.4545,2.4544,2.4544,2.4544,0,2.3718,2.3757,2.3826,2.3907,2.3967,2.3964,2.4029,2.408,2.4158,2.4217,2.4283,2.4379,2.446,2.4514,2.4596,2.4643,2.4647,2.4663,2.4661,2.4671,2.4566,2.4542,2.4659,2.4658,2.4658,2.4658,2.4658,2.4658,2.3792,2.3886,2.3908,2.4026,2.4066,2.4151,2.4189,2.4241,2.4289,2.4395,2.4461,2.4495,2.4553,2.4639,2.4713,2.4727,2.4758,2.4774,2.4788,2.469,2.4678,2.4666,2.4645,2.4781,2.4781,2.4888,2.4889,2.4889]},{"header":{"parameterUnit":"m.s-1","parameterCategory":1,"la1":30.2991,"la2":30.254,"lo1":-89.0895,"lo2":-89.0444,"dy":0.0017,"dx":0.0017,"nx":28,"ny":28,"refTime":"2024-08-02T09:00:00:Z","depth":0,"parameterNumber":3,"parameterNumberName":"V-component_of_WINDS"},"data":[0,0,0,0,0,0,0,0,0,0,0,0,0,0,0,0,0,0,0,0,0,0,0,0,0,0,0,0,0,0,0,0,0,0,0,0,0,0,0,0,0,0,0,0,0,0,0,0,0,0,0,0,0,0,0,0,0,0,3.0648,3.0648,0,3.0624,3.0624,3.0623,3.0592,3.0591,3.0591,3.059,3.0564,3.0564,3.0564,0,0,0,0,0,0,0,0,0,0,0,0,0,3.0665,3.0665,3.0648,3.0648,3.0648,3.0624,3.0624,3.0623,3.0592,3.0591,3.0591,3.059,3.0564,3.0564,3.0564,0,0,0,0,0,0,0,0,0,0,0,0,0,3.0651,3.0664,3.0648,3.0629,3.0627,3.0624,3.0624,3.0623,3.0592,3.0591,3.0591,3.059,3.0564,3.0564,3.0564,3.0577,0,0,3.0563,3.0562,0,0,0,0,0,0,0,0,3.0652,3.065,3.0632,3.0631,3.0628,3.061,3.062,3.0608,3.0592,3.0605,3.059,3.059,3.058,3.0578,3.0575,3.0576,3.0575,3.0563,3.0562,3.0562,3.0562,0,0,0,0,0,0,0,3.0653,3.0651,3.0639,3.0632,3.063,3.0621,3.0618,3.0617,3.0597,3.0604,3.0602,3.06,3.0579,3.0576,3.0575,3.0574,3.0563,3.0562,3.0562,3.0562,3.0581,3.0582,0,0,0,0,0,0,3.0657,3.0652,3.0639,3.0638,3.0638,3.0621,3.0618,3.0617,3.0597,3.0594,3.06,3.0598,3.0577,3.0575,3.0574,3.0586,3.0562,3.0562,3.0562,3.058,3.0581,3.0582,0,0,0,0,0,0,3.0657,3.0656,3.064,3.0644,3.0642,3.0622,3.0621,3.0617,3.0614,3.0594,3.059,3.0601,3.0576,3.0574,3.0576,3.0584,3.0562,3.0561,3.0579,3.0581,3.0582,3.0612,0,0,0,0,0,0,3.0658,3.0656,3.0662,3.0645,3.0642,3.0644,3.0621,3.0617,3.0613,3.0611,3.0594,3.059,3.0575,3.0576,3.0575,3.0584,3.0561,3.0579,3.058,3.0581,3.061,3.0613,3.0617,0,0,0,0,0,3.0658,3.0671,3.0662,3.0661,3.0648,3.0645,3.0643,3.0626,3.0614,3.0619,3.0606,3.0591,3.0584,3.0577,3.0575,3.0584,3.0578,3.058,3.0581,3.0608,3.0613,3.0617,0,0,0,0,0,0,3.069,3.0669,3.0658,3.0667,3.0658,3.0639,3.0645,3.0631,3.0625,3.0623,3.0601,3.0598,3.0601,3.0593,3.0585,3.0594,3.0578,3.058,3.0599,3.0604,3.0607,3.0609,3.0561,0,0,0,0,0,3.0698,3.0698,3.0679,3.0688,3.0684,3.0665,3.0663,3.065,3.064,3.0636,3.0623,3.0613,3.0608,3.0606,3.06,3.0608,3.0603,3.0613,3.0617,3.062,3.0621,3.0622,3.0625,3.0587,3.0587,3.0587,0,0,3.0714,3.0703,3.0704,3.0694,3.0685,3.0684,3.0662,3.0662,3.0661,3.0636,3.0636,3.0627,3.0614,3.0618,3.0619,3.0611,3.063,3.0622,3.0624,3.0624,3.0624,3.0628,3.0631,3.0588,3.0588,3.0588,0,0,3.0743,3.0735,3.074,3.0732,3.072,3.0707,3.0708,3.0692,3.0684,3.0684,3.0665,3.0662,3.0655,3.0646,3.0641,3.0664,3.0649,3.0663,3.0681,3.0683,3.0686,3.0688,3.0695,3.0697,3.0665,3.0665,3.0665,0,3.0764,3.0763,3.0745,3.0745,3.0741,3.0718,3.0722,3.0715,3.0702,3.0698,3.0689,3.0678,3.0668,3.0669,3.0675,3.0672,3.0671,3.0665,3.0687,3.0689,3.0691,3.0697,3.07,3.0666,3.0666,3.0666,3.0666,0,3.0789,3.0788,3.0793,3.078,3.0776,3.0779,3.076,3.0758,3.0746,3.0734,3.0733,3.072,3.071,3.071,3.0698,3.0708,3.0703,3.0691,3.0675,3.0697,3.0702,3.0704,3.0669,3.0668,3.0668,3.0667,0,0,3.0837,3.0813,3.0815,3.0808,3.0792,3.079,3.0791,3.0782,3.078,3.0771,3.077,3.0763,3.0751,3.0745,3.0732,3.0733,3.075,3.072,3.072,3.0725,3.0758,3.0766,3.0769,3.074,3.0741,3.0741,3.0758,0,3.0861,3.0862,3.0845,3.0849,3.0847,3.0825,3.0825,3.0815,3.0803,3.0798,3.0785,3.078,3.0766,3.0762,3.0762,3.0748,3.0756,3.0747,3.0737,3.0737,3.074,3.0772,3.0781,3.0799,3.076,3.0761,3.0761,0,3.0889,3.0882,3.0886,3.0868,3.0866,3.0867,3.0856,3.0853,3.084,3.0831,3.0823,3.0808,3.0806,3.0791,3.0787,3.0781,3.0776,3.0768,3.0768,3.0766,3.075,3.0769,3.0804,3.0806,3.0764,3.0764,3.0764,0,3.0921,3.0912,3.0913,3.0908,3.0888,3.0888,3.088,3.0866,3.0861,3.0851,3.0848,3.0838,3.0832,3.0825,3.0806,3.0798,3.0803,3.0787,3.0794,3.0795,3.0796,3.0796,3.0829,3.0795,3.0795,3.0795,3.0795,0,3.0949,3.0952,3.0927,3.0927,3.093,3.091,3.0912,3.0901,3.0889,3.0886,3.0866,3.0864,3.084,3.0834,3.082,3.0817,3.0815,3.0807,3.0803,3.0808,3.0809,3.0803,3.0801,3.0796,3.0795,3.0795,3.0795,0,3.0985,3.0969,3.0968,3.0948,3.0943,3.0946,3.0928,3.0927,3.0914,3.091,3.0908,3.0887,3.0879,3.086,3.0847,3.0837,3.0838,3.0831,3.0842,3.0839,3.0846,3.0845,3.0876,3.0878,3.0845,3.0845,3.0846,0,3.1003,3.1005,3.0986,3.0982,3.0975,3.097,3.0964,3.0944,3.0939,3.0924,3.0924,3.0914,3.0905,3.0893,3.0876,3.0865,3.0857,3.0869,3.0856,3.086,3.0855,3.0855,3.0854,3.0872,3.0872,3.0872,3.0873,0,3.1037,3.1028,3.1022,3.1012,3.1006,3.0997,3.0987,3.0985,3.0963,3.0958,3.0949,3.0943,3.0929,3.0919,3.0905,3.0895,3.0879,3.0877,3.0878,3.0882,3.0888,3.0883,3.0848,3.0876,3.0876,3.0876,3.0875,3.0875,3.1063,3.1063,3.1049,3.1042,3.1032,3.1023,3.102,3.1007,3.1,3.0987,3.0975,3.0968,3.0952,3.0933,3.0923,3.0916,3.0908,3.091,3.091,3.091,3.0911,3.089,3.0913,3.0913,3.0913,3.0913,3.0913,0,3.1094,3.1083,3.1077,3.1064,3.1058,3.1045,3.1032,3.1028,3.1021,3.1009,3.1001,3.099,3.098,3.0961,3.0949,3.0946,3.0939,3.0944,3.0943,3.094,3.092,3.092,3.095,3.095,3.095,3.095,3.095,3.095,3.1109,3.1107,3.1097,3.109,3.1079,3.1072,3.1066,3.1056,3.1046,3.1035,3.1027,3.1015,3.1,3.0986,3.0975,3.097,3.0966,3.0973,3.0965,3.0946,3.0942,3.0939,3.0939,3.0972,3.0972,3.0986,3.0986,3.0986]}]]